User: anonymous   Login
Location: Unspecified
(0.0000°N, 0.0000°E)
Time: 08:32:32
(UTC+00:00)
Language:

Vela 2A - Orbit

View from above orbital plane
View from above orbital plane
View from above satellite
View from above satellite

Ground track
Ground track

The orbit data is extracted from the following two-line orbital elements,

1 00836U 64040A   15052.90576596  .00000031  00000-0  00000+0 0  9994
2 00836 081.8413 323.8618 3296086 254.7508 000.6660 00.23919698 44205
Epoch (UTC): 21 February 2015 21:44:18
Eccentricity: 0.3296086
inclination: 81.8413°
perigee height: 67111 km
apogee height: 139375 km
right ascension of ascending node: 323.8618°
argument of perigee: 254.7508°
revolutions per day: 0.23919698
mean anomaly at epoch: 0.6660°
orbit number at epoch: 4420

The dashed part of the orbit path shows where the satellite is in the earth's shadow,  

DLR